Theta_e
330 330 325 324 321 322 319 318 317 317 317 318 316 316 317 318 319 321 321 343 343 344 345 340 338 338 338 340 340 339 344 347 349 349 347 347 347 348 348 349 347 346 345
330 326 324 323 322 321 320 318 317 316 315 315 315 315 315 316 317 318 320 322 344 343 345 343 342 340 338 338 340 340 340 340 346 347 348 347 346 346 347 348 348 347 346
327 326 322 321 323 321 321 319 318 316 314 315 312 315 316 316 318 318 319 321 323 343 345 344 345 343 340 336 338 340 340 340 343 346 346 347 347 346 346 348 347 347 346
329 326 324 323 324 321 319 318 316 314 313 312 312 312 312 314 316 318 319 320 323 330 341 343 342 340 340 335 334 338 340 340 340 343 344 345 347 348 347 348 348 347 346
326 325 323 323 325 319 317 317 315 313 312 311 312 310 310 311 314 317 317 319 322 323 325 339 341 340 340 338 334 335 340 339 340 341 344 344 345 347 347 347 347 347 346
329 324 322 322 320 317 317 316 313 313 312 311 314 311 308 311 313 312 315 318 319 319 322 321 324 326 333 334 335 335 338 340 339 340 343 342 343 346 347 347 346 345 346
327 324 323 321 319 316 315 312 313 310 309 311 307 307 307 310 309 312 315 318 316 318 319 319 323 324 326 332 333 335 336 339 340 340 338 338 340 342 346 346 346 345 345
326 325 322 320 318 313 311 311 309 308 308 308 304 303 299 303 308 312 314 315 314 316 319 320 321 322 323 323 327 334 333 333 334 336 336 337 340 340 340 343 344 344 344
326 323 322 319 315 312 310 309 309 308 305 307 308 308 302 298 304 309 310 313 314 315 317 317 319 321 322 322 326 327 329 329 330 334 336 338 339 340 339 341 342 342 343
324 321 318 315 314 311 310 311 312 308 307 304 309 312 310 309 302 298 308 310 313 312 312 311 314 318 320 321 326 328 329 330 331 331 334 334 336 339 340 340 341 340 340
321 318 318 315 312 311 311 310 309 308 307 306 307 309 308 308 309 305 301 302 308 308 308 308 312 317 317 320 321 325 329 328 326 326 328 332 334 335 337 341 340 340 337
317 318 318 313 312 311 310 309 309 308 308 309 309 310 308 305 303 304 303 302 299 303 307 309 307 314 319 318 326 327 327 326 325 325 327 329 332 335 335 337 340 340 338
315 315 316 315 312 311 311 313 308 310 307 309 310 309 309 308 307 306 304 301 297 300 302 305 310 313 320 321 323 326 326 323 323 323 324 327 329 333 336 338 339 341 339
313 317 313 314 312 314 314 311 310 310 310 310 307 305 306 309 309 308 304 301 300 303 301 306 309 313 316 319 323 325 322 322 321 321 321 322 325 328 332 335 337 335 335
316 314 313 310 312 313 311 307 308 310 309 309 306 309 309 306 306 307 308 307 303 297 300 306 307 313 314 316 319 317 319 322 320 319 319 319 320 322 324 326 328 328 331
312 310 310 312 311 308 309 309 310 309 308 306 307 307 307 305 305 305 307 307 306 303 301 305 308 309 311 312 316 313 316 318 318 318 317 317 317 319 319 319 321 322 324
312 311 310 307 307 308 309 310 309 309 307 305 307 308 308 309 305 304 308 308 306 306 302 304 306 307 306 307 308 310 312 312 314 315 315 314 314 314 315 317 318 319 320
306 305 305 308 308 308 309 309 308 308 307 308 308 306 307 311 307 308 307 306 306 307 305 301 303 304 304 306 307 307 309 310 311 313 313 312 311 311 311 311 312 314 315
305 305 308 308 307 307 309 307 308 308 308 308 307 306 306 307 307 308 308 307 307 308 305 302 301 304 304 305 304 305 305 306 309 312 311 311 311 310 310 309 308 308 308
305 305 308 308 307 309 304 304 306 308 309 309 309 309 309 307 308 308 308 307 307 304 303 302 301 301 302 304 303 301 301 304 304 307 308 308 309 309 309 309 308 306 305
305 306 306 306 308 304 304 304 307 308 308 308 309 310 312 310 312 311 308 306 305 303 302 301 300 300 300 300 299 301 300 301 302 303 302 301 300 300 301 305 307 306 304
305 306 305 306 304 305 303 305 307 306 308 308 307 309 310 312 312 312 310 308 306 303 301 300 299 298 298 299 301 300 300 299 297 302 298 296 298 297 297 299 302 302 302
304 305 305 305 302 302 302 301 304 307 308 306 307 307 308 311 310 308 308 308 306 306 304 301 299 299 298 299 299 298 298 300 297 297 297 293 295 294 295 298 301 301 301
305 304 306 305 303 306 302 301 305 308 305 307 307 306 306 306 306 306 304 303 302 302 302 302 301 300 300 301 301 302 301 300 299 298 296 291 292 291 293 295 301 300 299
304 304 305 305 305 306 301 302 308 307 305 306 306 306 305 303 301 302 302 300 300 301 303 303 301 300 299 300 301 301 299 298 295 294 296 294 291 291 292 292 295 300 298
306 307 306 307 307 306 300 301 308 307 303 305 305 305 303 302 299 300 301 299 298 299 300 300 298 299 299 300 302 299 296 294 295 291 295 293 292 290 287 291 292 291 292
Wind_Speed
3 4 3 4 3 3 3 4 5 5 6 7 7 7 9 9 9 5 3 13 17 16 13 14 13 13 11 10 8 5 4 4 6 8 13 15 17 17 17 17 16 16 15
4 4 2 2 3 2 3 3 5 4 4 4 7 7 8 7 9 7 5 5 17 17 16 15 16 14 13 10 7 6 6 6 6 8 9 12 17 18 19 19 18 18 18
4 4 2 1 1 2 3 4 4 4 4 5 6 6 8 9 10 11 7 6 7 14 19 17 9 9 9 9 7 8 8 7 8 8 8 10 11 17 20 20 20 20 19
3 4 3 1 1 1 2 2 1 3 3 4 4 5 4 7 11 12 8 6 7 2 8 9 10 9 11 9 9 11 11 11 10 10 10 10 11 14 17 19 20 21 20
2 3 3 1 2 1 2 1 2 2 3 4 5 3 4 5 8 11 11 10 8 6 2 8 8 10 8 10 12 15 17 15 14 12 11 10 12 14 15 18 20 20 21
5 5 2 2 1 2 2 2 2 3 2 3 5 6 4 5 6 6 9 8 5 2 4 3 4 3 7 10 11 14 16 19 16 13 11 10 10 12 13 15 17 19 19
5 4 2 3 1 2 2 3 2 3 3 4 3 4 4 9 6 5 5 4 2 5 5 2 3 4 4 12 12 15 17 18 15 14 10 10 9 9 10 13 16 17 18
3 3 5 4 3 3 3 3 2 2 2 3 2 3 4 6 3 4 6 7 8 5 7 7 7 5 5 4 8 9 8 5 9 9 10 10 10 10 8 9 13 15 16
5 3 6 4 4 4 3 0 1 2 2 3 2 2 3 2 7 1 6 5 7 7 6 7 7 6 6 5 7 6 2 2 2 6 8 9 11 12 11 9 8 9 14
5 6 6 4 5 3 0 1 1 1 1 3 3 2 3 2 1 6 2 4 4 6 5 5 4 5 5 4 7 5 4 8 6 5 7 6 7 9 13 12 12 9 7
8 6 4 6 2 0 1 3 2 1 1 2 3 3 2 3 4 5 7 2 3 3 3 4 5 4 5 5 0 2 6 7 7 6 6 8 8 11 12 14 15 12 9
3 5 5 2 2 3 2 1 1 1 3 4 3 3 3 3 2 2 2 2 2 4 4 3 4 4 5 4 1 9 9 11 11 8 7 6 6 11 14 16 17 15 15
3 5 5 5 3 3 3 3 1 2 4 4 4 4 3 3 3 3 2 2 3 3 3 2 3 3 5 5 6 7 12 14 14 10 11 12 12 7 13 17 16 16 14
2 4 5 3 4 6 5 4 2 3 5 4 5 4 3 4 3 3 3 3 2 2 2 2 4 3 5 5 8 13 7 15 14 14 17 17 16 16 12 9 12 12 8
6 6 6 6 5 4 4 6 3 5 4 4 5 4 3 3 3 3 4 3 3 1 2 4 3 6 5 4 11 8 6 16 18 18 22 21 20 23 25 23 18 9 9
7 6 6 6 6 6 7 6 6 4 4 4 4 5 4 3 4 3 3 3 3 2 1 2 4 3 5 6 12 9 10 16 19 22 25 25 23 25 27 30 30 30 26
7 7 6 5 6 6 7 8 6 5 4 5 5 4 5 5 4 4 3 3 3 3 2 2 3 4 5 8 8 7 6 8 11 26 26 25 25 25 27 27 28 29 30
6 5 6 5 6 7 7 8 6 5 5 5 4 4 4 2 4 4 4 4 3 3 2 6 2 3 6 7 7 7 8 8 9 24 28 27 26 26 27 27 27 26 25
7 6 5 5 6 7 8 6 5 5 5 5 5 5 5 3 3 3 6 5 3 3 5 6 4 2 4 6 8 8 9 9 9 23 26 28 27 27 27 26 26 26 26
6 6 6 6 5 6 6 7 6 6 6 7 7 8 8 4 5 3 6 6 7 7 7 7 5 4 4 4 5 5 8 7 7 10 20 21 22 26 25 25 26 26 23
6 6 7 6 6 6 6 7 6 6 8 9 7 8 5 7 8 8 7 8 10 8 7 7 6 6 5 3 7 4 7 5 6 6 9 8 9 9 11 19 22 23 22
7 7 7 6 6 3 9 11 10 8 8 5 7 9 6 9 6 16 17 14 10 10 8 7 5 7 5 5 4 2 2 3 6 7 7 9 7 9 7 8 19 17 17
6 7 6 5 6 6 12 11 14 5 6 7 8 8 8 8 14 12 16 18 16 14 11 8 8 6 5 2 2 3 0 5 8 6 9 9 5 8 4 8 15 14 14
6 5 6 5 5 7 13 13 12 7 6 9 9 9 10 11 12 13 13 12 11 9 8 6 6 4 4 2 2 1 5 8 9 6 4 6 3 4 4 4 12 11 11
5 4 4 7 7 7 14 13 7 7 8 9 9 10 10 11 13 16 13 12 11 9 12 13 9 7 5 2 2 2 8 8 6 3 4 6 1 3 2 3 3 9 10
3 4 5 6 8 7 12 12 6 4 6 6 8 8 12 11 12 11 12 11 11 8 9 5 2 2 4 6 6 3 5 7 7 4 3 5 4 4 3 2 2 3 3
Wind_Direction
81 61 27 31 344 33 16 354 343 329 323 341 349 348 339 330 319 301 270 232 205 210 200 195 188 185 189 188 198 217 250 276 256 236 225 227 223 216 211 202 193 193 193
96 90 16 321 31 27 351 352 326 307 355 3 345 330 322 313 303 302 297 284 236 218 205 201 205 198 204 203 198 218 241 258 260 245 235 228 227 223 219 214 205 198 195
148 154 189 48 72 360 360 338 332 17 4 340 317 326 320 322 323 312 296 290 292 240 204 207 228 217 217 226 226 233 238 256 259 253 248 240 228 222 221 221 217 211 204
162 185 157 116 257 342 346 347 28 338 321 305 308 297 337 333 326 320 315 317 315 269 210 221 227 221 219 231 253 262 249 239 247 247 240 243 237 226 224 222 221 215 211
213 158 146 161 52 13 348 57 320 330 305 313 298 348 323 312 313 311 307 309 307 297 117 207 223 227 221 244 258 265 255 242 238 238 233 240 247 234 226 224 223 219 217
204 157 134 78 94 25 20 1 358 352 321 312 319 313 298 286 289 290 285 292 293 60 83 106 83 66 27 2 337 303 277 250 248 242 227 236 245 240 227 220 220 225 222
157 142 130 154 167 119 70 13 45 347 322 327 343 326 305 282 291 292 312 325 16 40 49 41 61 37 353 346 330 320 305 255 246 243 227 242 245 247 234 223 218 219 221
135 202 170 204 133 104 30 54 28 326 314 341 317 308 334 320 357 340 11 354 14 27 41 26 45 16 10 330 312 318 331 316 265 253 237 245 244 242 242 236 225 222 220
207 231 196 135 136 120 129 265 29 49 322 313 322 280 331 317 333 323 348 10 7 31 24 9 22 13 359 335 318 326 15 25 258 261 261 247 235 235 233 229 218 221 224
4 46 96 106 96 91 350 141 89 336 291 281 300 233 243 210 283 313 6 355 7 10 23 357 352 358 352 325 330 327 54 55 31 351 330 281 253 242 228 221 220 212 229
41 40 75 104 111 259 49 95 345 296 219 229 234 263 228 223 216 232 300 339 336 359 10 352 352 338 336 331 195 21 70 68 41 8 335 301 273 249 234 227 218 211 215
349 35 35 7 326 39 54 323 272 262 262 260 251 240 234 239 221 228 259 320 284 314 320 306 338 322 332 324 189 77 74 72 57 39 24 352 303 258 239 227 218 212 211
2 354 356 7 15 351 330 311 312 293 274 258 250 251 233 236 219 205 183 263 260 293 305 329 2 16 20 7 60 84 84 70 62 52 49 34 22 345 244 219 209 201 206
331 18 16 11 353 338 346 329 297 265 250 253 263 255 250 239 225 195 185 183 280 235 310 341 21 21 42 19 73 61 87 87 76 67 59 47 43 48 47 184 175 159 182
17 17 359 350 334 355 307 299 304 274 262 265 263 256 240 237 226 212 207 201 210 226 27 22 40 25 55 49 76 59 61 94 83 74 66 56 53 64 65 74 76 77 111
10 2 359 359 355 343 338 312 281 283 289 279 255 248 240 226 224 219 179 183 188 194 138 15 30 49 45 55 68 57 69 76 83 77 70 63 55 65 74 80 82 78 68
0 1 11 350 345 328 329 312 298 302 294 284 279 265 254 231 203 186 172 164 174 180 149 78 45 48 54 68 53 49 51 63 68 75 69 64 62 61 62 69 78 81 82
353 344 339 331 333 328 315 307 321 344 345 326 322 310 300 257 215 195 164 172 174 175 130 115 63 55 67 65 62 63 67 63 72 71 71 66 63 64 64 65 67 77 81
332 322 332 327 338 324 329 0 8 357 343 333 325 311 294 300 216 203 158 156 146 106 111 120 110 57 72 66 67 54 61 59 65 72 74 71 66 65 65 65 66 68 71
343 350 332 316 326 340 9 353 348 338 337 320 304 292 260 219 146 142 126 126 116 110 111 109 98 101 83 57 70 83 73 52 68 65 66 70 71 69 69 71 71 70 71
349 339 338 347 31 28 7 346 337 342 327 327 334 335 357 144 153 126 126 117 121 115 116 108 108 99 87 77 91 70 92 111 73 76 72 56 62 58 57 66 77 81 75
344 354 8 27 29 16 352 340 330 332 321 327 13 13 61 74 114 112 114 114 119 122 116 109 90 102 75 83 95 83 90 101 91 69 78 67 62 63 52 61 76 75 87
351 357 10 42 12 3 355 339 333 345 36 43 35 33 52 63 81 94 99 101 95 97 105 121 122 120 115 134 157 128 131 103 96 106 103 75 48 67 39 72 77 77 74
4 8 16 14 19 5 355 353 14 44 46 47 48 54 66 74 83 91 87 83 82 84 94 94 112 110 105 152 82 340 124 107 100 101 103 91 18 68 43 43 82 85 85
1 10 8 15 17 1 2 21 42 55 53 54 55 63 75 84 90 99 93 92 91 85 82 87 102 129 162 256 358 34 108 115 110 78 52 97 60 86 53 27 36 81 91
352 23 32 21 24 13 8 24 49 77 68 61 60 65 71 93 86 90 103 109 103 112 116 107 72 312 283 286 269 201 132 117 119 72 263 96 163 145 59 46 37 55 77